sat.trackr.live / text

‹ back to catalog

STARLINK-6259

NORAD 57089 · 2023-088AT

PAYLOAD ACTIVE UNKNOWN

§ Identity

Operator
Country
US
Launch date
2023-06-22
Launch site
AFWTR
Launch vehicle
Mass (kg)
RCS (m²)

Purposes: comms

External: N2YO · Heavens-Above · Gunter

§ Orbital elements

Epoch: 2026-05-25T00:12:31.383648Z

Period
94.27 min
Inclination
43.0028°
Eccentricity
0.0001679
Mean motion
15.27585150 rev/d
Perigee alt
481.9 km
Apogee alt
484.2 km
Semi-major
6,861.2 km
B*
1.8094e-4
RAAN
24.9990°
Arg perigee
262.4039°
Mean anomaly
97.6622°
Rev number
16,217

§ Raw data

STARLINK-62591 57089U 23088AT  26145.00869657  .00004721  00000+0  18094-3 0  99972 57089  43.0028  24.9990 0001679 262.4039  97.6622 15.27585150162178

JSON: /api/v1/satellites/57089 · /tle

For live sub-satellite position, see the globe view (requires WebGL).

§ Visibility from observer

Set your observer location to see the next 7 days of passes ≥ 10°. The values pass through the URL so the page stays shareable.

No JS? Fill the form by hand. The geolocation button needs JavaScript.